When you browse on this site, cookies collect data to enhance your experience and personalize the content and advertising you see.
Visit our Privacy Policy to learn more. By continuing to use the site, you agree to this use of cookies and data.
  • In United Kingdom
  • List of Countries
  • For 7 days
  • Water Temperature
  • Weather Map
  • Weather Widgets
  • user-avatar
    Login

    Hourly Weather Rio Branco

    Today, 25 August, Sunday

    Time Temperature Precipitation Wind Pressure Humidity
    00:00 +27°C° 0 mm 0 mps 746 mmHg 53%
    01:00 +26°C° 0 mm 0 mps 746 mmHg 54%
    02:00 +26°C° 0 mm 0 mps 746 mmHg 55%
    03:00 +26°C° 0 mm 0 mps 746 mmHg 55%
    04:00 +26°C° 0 mm 0 mps 746 mmHg 56%
    05:00 +26°C° 0 mm 0 mps 746 mmHg 56%
    06:00 +29°C° 0 mm 1 mps 747 mmHg 56%
    07:00 +27°C° 0 mm 0 mps 748 mmHg 61%
    08:00 +30°C° 0.1 mm 0 mps 748 mmHg 52%
    09:00 +33°C° 0.1 mm 0 mps 748 mmHg 44%
    10:00 +36°C° 0.1 mm 0 mps 748 mmHg 35%
    11:00 +40°C° 0 mm 1 mps 747 mmHg 33%
    12:00 +40°C° 0 mm 1 mps 746 mmHg 31%
    13:00 +40°C° 0 mm 2 mps 745 mmHg 29%
    14:00 +39°C° 0 mm 2 mps 745 mmHg 32%
    15:00 +38°C° 0 mm 2 mps 745 mmHg 35%
    16:00 +37°C° 0 mm 2 mps 744 mmHg 38%
    17:00 +34°C° 0.2 mm 1 mps 744 mmHg 46%
    18:00 +31°C° 0.2 mm 1 mps 744 mmHg 55%
    19:00 +29°C° 0.2 mm 1 mps 745 mmHg 63%
    20:00 +28°C° 0 mm 1 mps 745 mmHg 67%
    21:00 +28°C° 0 mm 1 mps 746 mmHg 71%
    22:00 +27°C° 0 mm 1 mps 746 mmHg 75%
    23:00 +27°C° 0 mm 1 mps 746 mmHg 76%

    Tomorrow, 26 August, Monday

    Time Temperature Precipitation Wind Pressure Humidity
    00:00 +26°C° 0 mm 1 mps 746 mmHg 76%
    01:00 +26°C° 0 mm 1 mps 745 mmHg 77%
    02:00 +26°C° 0 mm 1 mps 746 mmHg 78%
    03:00 +26°C° 0 mm 1 mps 746 mmHg 78%
    04:00 +26°C° 0 mm 1 mps 746 mmHg 79%
    05:00 +25°C° 0 mm 0 mps 746 mmHg 75%
    06:00 +25°C° 0 mm 0 mps 747 mmHg 72%
    07:00 +26°C° 0 mm 0 mps 747 mmHg 69%
    08:00 +30°C° 0 mm 0 mps 748 mmHg 57%
    09:00 +34°C° 0 mm 0 mps 748 mmHg 46%
    10:00 +37°C° 0 mm 0 mps 748 mmHg 35%
    11:00 +38°C° 0 mm 0 mps 747 mmHg 33%
    12:00 +38°C° 0 mm 0 mps 746 mmHg 31%
    13:00 +38°C° 0 mm 0 mps 745 mmHg 29%
    14:00 +37°C° 0 mm 0 mps 744 mmHg 31%
    15:00 +36°C° 0 mm 0 mps 744 mmHg 33%
    16:00 +35°C° 0 mm 0 mps 743 mmHg 35%
    17:00 +33°C° 0 mm 0 mps 743 mmHg 41%
    18:00 +33°C° 0 mm 1 mps 744 mmHg 46%
    19:00 +31°C° 0 mm 1 mps 744 mmHg 52%
    20:00 +30°C° 0.1 mm 1 mps 745 mmHg 55%
    21:00 +29°C° 0.1 mm 1 mps 745 mmHg 58%
    22:00 +26°C° 0.1 mm 0 mps 746 mmHg 61%
    23:00 +26°C° 0.1 mm 0 mps 746 mmHg 64%

    Day after tomorrow, 27 August, Tuesday

    Time Temperature Precipitation Wind Pressure Humidity
    00:00 +25°C° 0.1 mm 0 mps 746 mmHg 67%
    01:00 +25°C° 0.1 mm 0 mps 746 mmHg 70%
    02:00 +24°C° 0.3 mm 0 mps 746 mmHg 75%
    03:00 +23°C° 0.3 mm 0 mps 746 mmHg 79%
    04:00 +23°C° 0.3 mm 0 mps 745 mmHg 84%
    05:00 +23°C° 0.3 mm 0 mps 746 mmHg 82%
    06:00 +24°C° 0.3 mm 0 mps 747 mmHg 81%
    07:00 +25°C° 0.3 mm 0 mps 747 mmHg 80%
    08:00 +29°C° 0 mm 0 mps 748 mmHg 65%
    09:00 +33°C° 0 mm 0 mps 748 mmHg 50%
    10:00 +38°C° 0 mm 0 mps 748 mmHg 35%
    11:00 +39°C° 0 mm 0 mps 747 mmHg 32%
    12:00 +40°C° 0 mm 0 mps 746 mmHg 29%
    13:00 +41°C° 0 mm 0 mps 745 mmHg 25%
    14:00 +41°C° 0.1 mm 1 mps 744 mmHg 32%
    15:00 +38°C° 0.1 mm 2 mps 744 mmHg 38%
    16:00 +35°C° 0.1 mm 2 mps 743 mmHg 44%
    17:00 +32°C° 0.2 mm 2 mps 743 mmHg 51%
    18:00 +31°C° 0.2 mm 1 mps 744 mmHg 57%
    19:00 +29°C° 0.2 mm 1 mps 744 mmHg 64%
    20:00 +28°C° 0.1 mm 1 mps 745 mmHg 67%
    21:00 +27°C° 0.1 mm 1 mps 745 mmHg 70%
    22:00 +27°C° 0.1 mm 1 mps 746 mmHg 73%
    23:00 +27°C° 0.1 mm 1 mps 746 mmHg 74%

    28 August, Wednesday

    Time Temperature Precipitation Wind Pressure Humidity
    00:00 +24°C° 0.1 mm 0 mps 746 mmHg 75%
    01:00 +24°C° 0.1 mm 0 mps 746 mmHg 76%
    02:00 +24°C° 1 mm 0 mps 745 mmHg 80%
    03:00 +23°C° 1 mm 0 mps 745 mmHg 83%
    04:00 +23°C° 1 mm 0 mps 745 mmHg 87%
    05:00 +25°C° 0.1 mm 1 mps 746 mmHg 87%
    06:00 +25°C° 0.1 mm 1 mps 747 mmHg 88%
    07:00 +25°C° 0.1 mm 1 mps 748 mmHg 88%
    08:00 +26°C° 0 mm 1 mps 748 mmHg 84%
    09:00 +27°C° 0 mm 1 mps 748 mmHg 79%
    10:00 +28°C° 0 mm 2 mps 749 mmHg 75%
    11:00 +30°C° 0 mm 2 mps 748 mmHg 67%
    12:00 +32°C° 0 mm 2 mps 747 mmHg 58%
    13:00 +34°C° 0 mm 2 mps 746 mmHg 50%
    14:00 +35°C° 0 mm 2 mps 745 mmHg 47%
    15:00 +35°C° 0 mm 2 mps 744 mmHg 44%
    16:00 +36°C° 0 mm 2 mps 744 mmHg 41%
    17:00 +32°C° 0 mm 1 mps 744 mmHg 47%
    18:00 +30°C° 0 mm 1 mps 744 mmHg 54%
    19:00 +28°C° 0 mm 1 mps 744 mmHg 60%
    20:00 +28°C° 0 mm 1 mps 745 mmHg 62%
    21:00 +28°C° 0 mm 1 mps 745 mmHg 64%
    22:00 +27°C° 0 mm 1 mps 746 mmHg 66%
    23:00 +27°C° 0 mm 1 mps 745 mmHg 67%

    29 August, Thursday

    Time Temperature Precipitation Wind Pressure Humidity
    00:00 +26°C° 0 mm 1 mps 745 mmHg 68%
    01:00 +26°C° 0 mm 1 mps 745 mmHg 69%
    02:00 +26°C° 0.1 mm 1 mps 745 mmHg 72%
    03:00 +25°C° 0.1 mm 1 mps 744 mmHg 74%
    04:00 +25°C° 0.1 mm 1 mps 744 mmHg 76%
    05:00 +25°C° 0.1 mm 1 mps 745 mmHg 74%
    06:00 +26°C° 0.1 mm 1 mps 745 mmHg 72%
    07:00 +26°C° 0.1 mm 1 mps 746 mmHg 70%
    08:00 +30°C° 0 mm 1 mps 746 mmHg 59%
    09:00 +33°C° 0 mm 1 mps 746 mmHg 47%
    10:00 +37°C° 0 mm 1 mps 746 mmHg 36%
    11:00 +39°C° 0 mm 1 mps 745 mmHg 33%
    12:00 +40°C° 0 mm 1 mps 744 mmHg 30%
    13:00 +42°C° 0 mm 2 mps 743 mmHg 27%
    14:00 +41°C° 0 mm 1 mps 743 mmHg 28%
    15:00 +40°C° 0 mm 1 mps 742 mmHg 30%
    16:00 +39°C° 0 mm 1 mps 742 mmHg 32%
    17:00 +36°C° 0 mm 1 mps 742 mmHg 36%
    18:00 +34°C° 0 mm 1 mps 742 mmHg 40%
    19:00 +32°C° 0 mm 1 mps 743 mmHg 45%
    20:00 +31°C° 0 mm 1 mps 743 mmHg 48%
    21:00 +30°C° 0 mm 1 mps 743 mmHg 51%
    22:00 +29°C° 0 mm 1 mps 744 mmHg 54%
    23:00 +29°C° 0 mm 1 mps 744 mmHg 55%

    30 August, Friday

    Time Temperature Precipitation Wind Pressure Humidity
    00:00 +29°C° 0 mm 1 mps 743 mmHg 57%
    01:00 +28°C° 0 mm 1 mps 743 mmHg 59%
    02:00 +28°C° 0 mm 1 mps 743 mmHg 61%
    03:00 +27°C° 0 mm 1 mps 743 mmHg 63%
    04:00 +27°C° 0 mm 1 mps 743 mmHg 65%
    05:00 +28°C° 0 mm 1 mps 744 mmHg 63%
    06:00 +29°C° 0 mm 1 mps 744 mmHg 60%
    07:00 +30°C° 0 mm 1 mps 745 mmHg 58%
    08:00 +33°C° 0 mm 1 mps 745 mmHg 49%
    09:00 +37°C° 0 mm 2 mps 745 mmHg 40%
    10:00 +40°C° 0 mm 2 mps 745 mmHg 31%
    11:00 +40°C° 0 mm 2 mps 744 mmHg 30%
    12:00 +40°C° 0 mm 2 mps 743 mmHg 28%
    13:00 +41°C° 0 mm 2 mps 742 mmHg 27%
    14:00 +40°C° 0 mm 2 mps 742 mmHg 27%
    15:00 +40°C° 0 mm 2 mps 741 mmHg 27%
    16:00 +40°C° 0 mm 2 mps 741 mmHg 28%
    17:00 +38°C° 0 mm 2 mps 741 mmHg 33%
    18:00 +34°C° 0 mm 1 mps 742 mmHg 39%
    19:00 +32°C° 0 mm 1 mps 742 mmHg 44%
    20:00 +31°C° 0 mm 1 mps 743 mmHg 46%
    21:00 +31°C° 0 mm 1 mps 743 mmHg 48%
    22:00 +30°C° 0 mm 1 mps 743 mmHg 51%
    23:00 +30°C° 0 mm 1 mps 743 mmHg 53%
    Show more